FW8533 Weather Reports


time (UTC)temp
C
wind
direction
speed
KPH
gust
KPH
rain 1hr
cm
rain 24hr
cm
rain mn
cm
humidity
%
barometer
mb
20260510214340 21 148 0.0 0.0 0.00 0.00 0.00 20 1024.5
20260510213837 21 147 0.0 1.6 0.00 0.00 0.00 19 1024.5
20260510213333 22 215 3.2 3.2 0.00 0.00 0.00 18 1024.9
20260510212830 22 180 4.8 4.8 0.00 0.00 0.00 18 1024.9
20260510212327 22 211 4.8 4.8 0.00 0.00 0.00 19 1024.8
20260510211824 20 158 1.6 1.6 0.00 0.00 0.00 19 1024.5
20260510211320 21 98 1.6 1.6 0.00 0.00 0.00 19 1024.6
20260510210815 22 201 4.8 8.0 0.00 0.00 0.00 17 1024.5
20260510210310 22 19 1.6 1.6 0.00 0.00 0.00 17 1024.8
20260510205810 22 103 3.2 3.2 0.00 0.00 0.00 16 1024.8
20260510205306 21 303 0.0 1.6 0.00 0.00 0.00 16 1025.1
20260510204801 20 228 3.2 4.8 0.00 0.00 0.00 19 1025.1
20260510204258 20 170 6.4 9.7 0.00 0.00 0.00 18 1024.9
20260510203755 22 228 6.4 8.0 0.00 0.00 0.00 17 1024.9
20260510203253 22 107 3.2 3.2 0.00 0.00 0.00 17 1024.9
20260510202752 22 153 3.2 3.2 0.00 0.00 0.00 17 1025.1
20260510202248 22 193 4.8 8.0 0.00 0.00 0.00 17 1025.0
20260510201746 21 131 1.6 1.6 0.00 0.00 0.00 18 1025.3
20260510201242 21 231 6.4 8.0 0.00 0.00 0.00 18 1025.3
20260510200739 20 145 3.2 3.2 0.00 0.00 0.00 19 1025.1
20260510200237 21 132 1.6 1.6 0.00 0.00 0.00 18 1025.1
20260510195733 20 167 4.8 4.8 0.00 0.00 0.00 18 1025.3
20260510195230 20 257 3.2 4.8 0.00 0.00 0.00 18 1025.5
20260510194729 22 199 3.2 8.0 0.00 0.00 0.00 18 1025.3
20260510194226 21 347 3.2 3.2 0.00 0.00 0.00 19 1025.0
20260510193721 22 137 3.2 3.2 0.00 0.00 0.00 18 1025.3
20260510193216 20 245 8.0 8.0 0.00 0.00 0.00 20 1025.1
20260510192712 20 104 3.2 8.0 0.00 0.00 0.00 21 1025.1
20260510192208 20 175 3.2 3.2 0.00 0.00 0.00 21 1025.4
20260510191704 21 185 3.2 3.2 0.00 0.00 0.00 20 1025.5
20260510191201 21 88 1.6 3.2 0.00 0.00 0.00 20 1025.5
20260510190658 21 159 1.6 1.6 0.00 0.00 0.00 20 1025.8
20260510190155 22 183 3.2 3.2 0.00 0.00 0.00 20 1025.5
20260510185652 22 204 3.2 4.8 0.00 0.00 0.00 19 1025.5
20260510185150 21 179 1.6 1.6 0.00 0.00 0.00 22 1025.4
20260510184646 21 156 1.6 1.6 0.00 0.00 0.00 21 1025.5
20260510184142 20 154 0.0 1.6 0.00 0.00 0.00 23 1025.5
20260510183638 21 186 0.0 0.0 0.00 0.00 0.00 23 1025.5
20260510183133 20 157 4.8 4.8 0.00 0.00 0.00 24 1025.5
20260510182630 20 157 4.8 4.8 0.00 0.00 0.00 23 1025.5
20260510182125 20 167 1.6 1.6 0.00 0.00 0.00 26 1025.8
20260510181623 18 163 1.6 3.2 0.00 0.00 0.00 26 1025.8
20260510181119 20 156 4.8 8.0 0.00 0.00 0.00 24 1026.0
20260510180615 20 226 1.6 3.2 0.00 0.00 0.00 26 1025.9
20260510180113 20 178 3.2 3.2 0.00 0.00 0.00 26 1025.9
20260510175609 20 149 1.6 1.6 0.00 0.00 0.00 25 1026.2
20260510175105 19 148 0.0 0.0 0.00 0.00 0.00 28 1026.0
20260510174603 20 150 1.6 4.8 0.00 0.00 0.00 28 1025.9
20260510174059 18 166 4.8 4.8 0.00 0.00 0.00 29 1025.8
20260510173555 19 157 3.2 3.2 0.00 0.00 0.00 28 1025.8
20260510173052 18 183 4.8 4.8 0.00 0.00 0.00 29 1026.3
20260510172548 18 160 4.8 8.0 0.00 0.00 0.00 30 1026.0
20260510172044 19 148 4.8 4.8 0.00 0.00 0.00 30 1026.0
20260510171541 18 176 1.6 1.6 0.00 0.00 0.00 32 1026.2
20260510171038 17 125 0.0 0.0 0.00 0.00 0.00 33 1026.2
20260510170534 17 180 1.6 1.6 0.00 0.00 0.00 33 1026.3
20260510170031 17 158 1.6 1.6 0.00 0.00 0.00 34 1025.9
20260510165527 17 280 1.6 3.2 0.00 0.00 0.00 35 1026.3
20260510165023 17 174 1.6 3.2 0.00 0.00 0.00 35 1026.2
20260510164520 17 291 1.6 1.6 0.00 0.00 0.00 35 1026.2
20260510164017 17 159 4.8 8.0 0.00 0.00 0.00 36 1026.0
20260510163512 17 210 4.8 4.8 0.00 0.00 0.00 36 1026.2
20260510163008 17 222 1.6 1.6 0.00 0.00 0.00 37 1026.0
20260510162504 17 259 8.0 11.3 0.00 0.00 0.00 36 1026.2
20260510162001 17 129 0.0 1.6 0.00 0.00 0.00 36 1026.0
20260510161457 16 214 6.4 8.0 0.00 0.00 0.00 37 1025.8
20260510160954 16 127 1.6 3.2 0.00 0.00 0.00 37 1026.0
20260510160451 16 157 1.6 1.6 0.00 0.00 0.00 39 1025.8
20260510155949 15 154 0.0 1.6 0.00 0.00 0.00 40 1025.9
20260510155446 15 246 8.0 11.3 0.00 0.00 0.00 40 1025.9
20260510154942 15 137 4.8 4.8 0.00 0.00 0.00 40 1025.9
20260510154433 15 149 0.0 1.6 0.00 0.00 0.00 41 1026.0
20260510153931 14 237 1.6 1.6 0.00 0.00 0.00 42 1025.9
20260510153429 14 247 6.4 8.0 0.00 0.00 0.00 43 1025.9
20260510152925 15 197 3.2 3.2 0.00 0.00 0.00 43 1025.8
20260510152423 15 264 1.6 3.2 0.00 0.00 0.00 42 1026.0
20260510151919 14 139 1.6 3.2 0.00 0.00 0.00 44 1025.6
20260510151417 14 146 0.0 0.0 0.00 0.00 0.00 45 1025.9
20260510150912 13 162 0.0 1.6 0.00 0.00 0.00 46 1025.8
20260510150408 13 186 1.6 3.2 0.00 0.00 0.00 46 1025.5
20260510145904 13 158 0.0 0.0 0.00 0.00 0.00 46 1025.5
20260510145401 13 147 0.0 1.6 0.00 0.00 0.00 47 1025.6
20260510144857 12 142 0.0 0.0 0.00 0.00 0.00 48 1025.8
20260510144354 12 143 1.6 3.2 0.00 0.00 0.00 49 1026.0
20260510143849 12 171 1.6 1.6 0.00 0.00 0.00 49 1025.8
20260510143345 11 125 0.0 0.0 0.00 0.00 0.00 51 1025.8
20260510142843 11 142 1.6 1.6 0.00 0.00 0.00 52 1025.5
20260510142339 11 138 3.2 3.2 0.00 0.00 0.00 51 1025.6
20260510141836 11 144 1.6 3.2 0.00 0.00 0.00 50 1025.5
20260510141333 12 145 1.6 1.6 0.00 0.00 0.00 48 1025.4
20260510140830 11 139 0.0 0.0 0.00 0.00 0.00 46 1025.5
20260510140326 11 150 1.6 1.6 0.00 0.00 0.00 48 1025.5
20260510135819 10 152 3.2 3.2 0.00 0.00 0.00 49 1025.3
20260510135315 10 171 3.2 3.2 0.00 0.00 0.00 48 1025.4
20260510134813 10 162 3.2 4.8 0.00 0.00 0.00 46 1025.0
20260510134310 10 172 1.6 3.2 0.00 0.00 0.00 45 1025.0
20260510133806 10 162 1.6 1.6 0.00 0.00 0.00 46 1024.9
20260510133302 8 160 1.6 1.6 0.00 0.00 0.00 47 1024.6
20260510132757 8 191 0.0 0.0 0.00 0.00 0.00 49 1024.4
20260510132256 6 198 0.0 0.0 0.00 0.00 0.00 52 1024.3
20260510131752 5 198 0.0 0.0 0.00 0.00 0.00 54 1024.3
20260510131251 4 237 0.0 0.0 0.00 0.00 0.00 57 1023.9
20260510130746 4 237 0.0 1.6 0.00 0.00 0.00 58 1024.1
20260510130244 3 237 0.0 0.0 0.00 0.00 0.00 58 1024.0
20260510125740 4 237 0.0 0.0 0.00 0.00 0.00 57 1023.9
20260510125236 4 236 0.0 0.0 0.00 0.00 0.00 58 1023.9
20260510124733 4 236 0.0 0.0 0.00 0.00 0.00 56 1023.7
20260510124231 3 236 0.0 0.0 0.00 0.00 0.00 57 1023.7
20260510123725 4 236 0.0 0.0 0.00 0.00 0.00 57 1023.9
20260510123222 4 236 0.0 1.6 0.00 0.00 0.00 56 1023.5
20260510122718 4 236 0.0 0.0 0.00 0.00 0.00 56 1023.5
20260510122215 4 236 0.0 0.0 0.00 0.00 0.00 56 1023.7
20260510121711 4 236 0.0 1.6 0.00 0.00 0.00 55 1024.0
20260510121209 4 236 1.6 1.6 0.00 0.00 0.00 55 1023.9
20260510120705 5 236 0.0 1.6 0.00 0.00 0.00 55 1024.0
20260510120202 5 236 0.0 0.0 0.00 0.00 0.00 53 1023.6
20260510115658 5 236 0.0 0.0 0.00 0.00 0.00 52 1023.7
20260510115156 6 236 0.0 0.0 0.00 0.00 0.00 51 1023.7
20260510114651 6 236 0.0 1.6 0.00 0.00 0.00 51 1023.9
20260510114148 6 236 1.6 3.2 0.00 0.00 0.00 51 1023.6
20260510113643 6 236 0.0 0.0 0.00 0.00 0.00 51 1023.6
20260510113140 6 237 0.0 0.0 0.00 0.00 0.00 50 1023.7
20260510112637 6 274 0.0 0.0 0.00 0.00 0.00 51 1023.4
20260510112134 6 274 0.0 0.0 0.00 0.00 0.00 51 1023.0
20260510111630 6 274 0.0 0.0 0.00 0.00 0.00 50 1023.1
20260510111126 6 274 0.0 0.0 0.00 0.00 0.00 49 1023.1
20260510110622 6 274 0.0 0.0 0.00 0.00 0.00 49 1023.0
20260510110119 6 274 0.0 0.0 0.00 0.00 0.00 48 1023.2
20260510105615 7 274 1.6 1.6 0.00 0.00 0.00 48 1023.0
20260510105109 7 274 0.0 1.6 0.00 0.00 0.00 48 1023.0
20260510104606 7 274 0.0 1.6 0.00 0.00 0.00 47 1023.0
20260510104103 7 274 0.0 0.0 0.00 0.00 0.00 47 1023.0
20260510103600 7 274 0.0 1.6 0.00 0.00 0.00 46 1022.9
20260510103056 7 274 0.0 0.0 0.00 0.00 0.00 46 1023.0
20260510102551 7 274 0.0 0.0 0.00 0.00 0.00 46 1022.7
20260510102047 7 274 0.0 0.0 0.00 0.00 0.00 45 1022.7
20260510101545 7 274 0.0 0.0 0.00 0.00 0.00 45 1022.9
20260510101044 7 274 0.0 0.0 0.00 0.00 0.00 46 1022.5
20260510100539 8 274 0.0 0.0 0.00 0.00 0.00 44 1022.6
20260510100037 8 274 0.0 0.0 0.00 0.00 0.00 43 1022.2
20260510095533 10 274 0.0 0.0 0.00 0.00 0.00 42 1022.0
20260510095032 10 274 0.0 0.0 0.00 0.00 0.00 41 1022.1
20260510094527 10 274 0.0 0.0 0.00 0.00 0.00 41 1021.9
20260510094023 9 274 0.0 0.0 0.00 0.00 0.00 42 1022.0
20260510093518 9 274 0.0 0.0 0.00 0.00 0.00 42 1022.0
20260510093015 9 274 0.0 0.0 0.00 0.00 0.00 42 1021.7
20260510092513 10 274 0.0 0.0 0.00 0.00 0.00 41 1022.0
20260510092012 10 274 0.0 0.0 0.00 0.00 0.00 41 1021.9
20260510091509 10 274 0.0 0.0 0.00 0.00 0.00 40 1021.7
20260510091005 11 274 0.0 0.0 0.00 0.00 0.00 39 1021.5
20260510090503 11 274 0.0 0.0 0.00 0.00 0.00 37 1021.5
20260510085957 12 274 0.0 0.0 0.00 0.00 0.00 36 1021.6
20260510085453 12 274 3.2 3.2 0.00 0.00 0.00 36 1021.3
20260510084949 12 275 0.0 0.0 0.00 0.00 0.00 35 1021.3
20260510084446 13 294 0.0 0.0 0.00 0.00 0.00 35 1021.2
20260510083942 13 294 1.6 3.2 0.00 0.00 0.00 35 1021.1
20260510083439 13 61 12.9 17.7 0.00 0.00 0.00 34 1021.2
20260510082934 12 131 0.0 0.0 0.00 0.00 0.00 35 1021.0
20260510082433 10 99 3.2 4.8 0.00 0.00 0.00 38 1021.0
20260510081931 10 139 0.0 0.0 0.00 0.00 0.00 38 1021.2
20260510081427 10 145 0.0 0.0 0.00 0.00 0.00 36 1020.8
20260510080924 10 155 0.0 0.0 0.00 0.00 0.00 37 1020.7
20260510080423 10 137 0.0 0.0 0.00 0.00 0.00 38 1020.7
20260510075920 10 126 0.0 1.6 0.00 0.00 0.00 38 1021.1
20260510075418 10 127 0.0 0.0 0.00 0.00 0.00 39 1020.8
20260510074914 10 136 0.0 0.0 0.00 0.00 0.00 39 1021.0
20260510074411 10 130 0.0 0.0 0.00 0.00 0.00 39 1021.1
20260510073908 10 130 0.0 0.0 0.00 0.00 0.00 39 1021.2
20260510073403 11 122 0.0 0.0 0.00 0.00 0.00 39 1021.2
20260510072900 11 131 0.0 0.0 0.00 0.00 0.00 39 1021.2
20260510072357 11 140 0.0 0.0 0.00 0.00 0.00 38 1021.5
20260510071852 11 137 0.0 0.0 0.00 0.00 0.00 37 1021.6
20260510071349 11 132 0.0 0.0 0.00 0.00 0.00 37 1021.7
20260510070848 11 139 0.0 0.0 0.00 0.00 0.00 36 1021.9
20260510070344 11 135 0.0 0.0 0.00 0.00 0.00 37 1021.7
20260510065844 11 125 0.0 0.0 0.00 0.00 0.00 37 1021.9
20260510065341 12 127 0.0 0.0 0.00 0.00 0.00 37 1022.2
20260510064838 12 129 0.0 0.0 0.00 0.00 0.00 36 1022.2
20260510064336 12 145 0.0 0.0 0.00 0.00 0.00 35 1022.0
20260510063832 12 138 0.0 0.0 0.00 0.00 0.00 36 1022.0
20260510063329 12 139 0.0 0.0 0.00 0.00 0.00 36 1021.6
20260510062825 12 140 0.0 0.0 0.00 0.00 0.00 36 1021.6
20260510062321 12 141 0.0 0.0 0.00 0.00 0.00 35 1021.9
20260510061816 13 137 0.0 0.0 0.00 0.00 0.00 35 1021.9
20260510061313 13 144 0.0 0.0 0.00 0.00 0.00 35 1021.6
20260510060809 13 151 0.0 0.0 0.00 0.00 0.00 35 1021.6
20260510060307 13 140 0.0 0.0 0.00 0.00 0.00 34 1021.6
20260510055803 13 148 0.0 0.0 0.00 0.00 0.00 34 1021.5
20260510055306 13 148 0.0 0.0 0.00 0.00 0.00 34 1021.2
20260510054801 13 145 1.6 3.2 0.00 0.00 0.00 34 1021.2
20260510054257 13 143 3.2 4.8 0.00 0.00 0.00 34 1021.3
20260510053752 13 139 0.0 1.6 0.00 0.00 0.00 34 1021.3
20260510053248 13 169 3.2 3.2 0.00 0.00 0.00 34 1021.6
20260510052744 13 106 6.4 11.3 0.00 0.00 0.00 33 1021.6
20260510052240 13 147 0.0 0.0 0.00 0.00 0.00 32 1021.2
20260510051736 14 144 0.0 0.0 0.00 0.00 0.00 31 1021.0
20260510051233 15 149 0.0 0.0 0.00 0.00 0.00 29 1021.1
20260510050730 15 144 0.0 0.0 0.00 0.00 0.00 29 1020.8
20260510050227 15 126 0.0 1.6 0.00 0.00 0.00 28 1020.8
20260510045724 15 141 0.0 0.0 0.00 0.00 0.00 28 1020.8
20260510045220 15 66 1.6 3.2 0.00 0.00 0.00 28 1021.1
20260510044717 15 137 0.0 1.6 0.00 0.00 0.00 28 1021.0
20260510044215 15 131 0.0 0.0 0.00 0.00 0.00 28 1021.0
20260510043710 15 142 0.0 0.0 0.00 0.00 0.00 27 1021.0
20260510043207 15 346 1.6 3.2 0.00 0.00 0.00 27 1020.8
20260510042704 16 132 0.0 0.0 0.00 0.00 0.00 27 1020.8
20260510042200 16 139 0.0 0.0 0.00 0.00 0.00 27 1021.0
20260510041657 16 1 0.0 0.0 0.00 0.00 0.00 27 1020.8
20260510041154 15 132 0.0 1.6 0.00 0.00 0.00 28 1020.8
20260510040651 15 141 0.0 0.0 0.00 0.00 0.00 28 1021.1
20260510040148 15 140 0.0 0.0 0.00 0.00 0.00 29 1020.8
20260510035643 15 129 0.0 1.6 0.00 0.00 0.00 29 1021.1
20260510035139 16 153 1.6 1.6 0.00 0.00 0.00 29 1021.1
20260510034636 16 142 0.0 1.6 0.00 0.00 0.00 29 1020.8
20260510034133 15 132 0.0 0.0 0.00 0.00 0.00 29 1020.8
20260510033629 15 88 4.8 4.8 0.00 0.00 0.00 29 1020.6
20260510033127 15 130 1.6 1.6 0.00 0.00 0.00 29 1020.8
20260510032623 16 220 3.2 4.8 0.00 0.00 0.00 29 1020.7
20260510032119 16 144 0.0 0.0 0.00 0.00 0.00 28 1020.8
20260510031614 16 167 0.0 0.0 0.00 0.00 0.00 28 1020.6
20260510031111 16 133 0.0 1.6 0.00 0.00 0.00 28 1020.7
20260510030605 16 132 4.8 8.0 0.00 0.00 0.00 28 1020.5
20260510030103 16 38 3.2 3.2 0.00 0.00 0.00 28 1020.5
20260510025600 16 46 6.4 9.7 0.00 0.00 0.00 27 1020.3
20260510025058 16 135 3.2 4.8 0.00 0.00 0.00 27 1020.2
20260510024554 16 48 6.4 8.0 0.00 0.00 0.00 27 1020.0
20260510024050 16 129 0.0 0.0 0.00 0.00 0.00 27 1020.1
20260510023547 17 121 4.8 8.0 0.00 0.00 0.00 26 1019.8
20260510023044 17 121 1.6 1.6 0.00 0.00 0.00 26 1019.7
20260510022543 17 126 1.6 1.6 0.00 0.00 0.00 26 1019.8
20260510022038 17 136 1.6 1.6 0.00 0.00 0.00 26 1019.8
20260510021535 17 138 0.0 0.0 0.00 0.00 0.00 26 1019.8
20260510021032 17 130 1.6 1.6 0.00 0.00 0.00 26 1019.6
20260510020526 17 53 4.8 8.0 0.00 0.00 0.00 26 1019.4
20260510020022 17 120 1.6 4.8 0.00 0.00 0.00 26 1019.3
20260510015518 17 126 1.6 1.6 0.00 0.00 0.00 26 1019.6
20260510015014 17 152 3.2 4.8 0.00 0.00 0.00 26 1019.4
20260510014511 17 61 3.2 4.8 0.00 0.00 0.00 26 1019.4
20260510014008 17 122 0.0 0.0 0.00 0.00 0.00 26 1019.1
20260510013503 18 67 4.8 4.8 0.00 0.00 0.00 25 1019.1
20260510012959 18 81 1.6 4.8 0.00 0.00 0.00 25 1019.3
20260510012453 18 147 3.2 4.8 0.00 0.00 0.00 25 1018.7
20260510011948 18 227 3.2 3.2 0.00 0.00 0.00 24 1018.9
20260510011443 18 345 4.8 8.0 0.00 0.00 0.00 24 1018.7
20260510010940 18 121 1.6 3.2 0.00 0.00 0.00 24 1018.8
20260510010437 19 128 3.2 3.2 0.00 0.00 0.00 23 1018.6
20260510005934 19 328 4.8 8.0 0.00 0.00 0.00 22 1018.7
20260510005430 19 158 4.8 8.0 0.00 0.00 0.00 22 1018.7
20260510004927 19 129 1.6 1.6 0.00 0.00 0.00 22 1018.7
20260510004424 19 145 1.6 1.6 0.00 0.00 0.00 22 1018.6
20260510003923 19 258 1.6 4.8 0.00 0.00 0.00 22 1018.6
20260510003419 19 88 0.0 1.6 0.00 0.00 0.00 23 1018.3
20260510002919 19 152 3.2 8.0 0.00 0.00 0.00 23 1018.2
20260510002416 20 70 4.8 9.7 0.00 0.00 0.00 22 1018.6
20260510001912 20 324 1.6 3.2 0.00 0.00 0.00 22 1018.8
20260510001410 20 151 0.0 1.6 0.00 0.00 0.00 21 1018.4
20260510000906 20 80 11.3 24.1 0.00 0.00 0.00 21 1018.6
20260510000404 20 321 3.2 4.8 0.00 0.00 0.00 21 1018.7
20260509235859 20 305 4.8 8.0 0.00 0.00 0.00 21 1018.4
20260509235356 20 164 1.6 3.2 0.00 0.00 0.00 21 1018.3
20260509234852 20 201 3.2 3.2 0.00 0.00 0.00 21 1018.6
20260509234350 21 134 1.6 1.6 0.00 0.00 0.00 20 1018.6
20260509233848 21 236 1.6 1.6 0.00 0.00 0.00 20 1018.3
20260509233345 21 98 8.0 14.5 0.00 0.00 0.00 20 1018.4
20260509232840 21 216 3.2 3.2 0.00 0.00 0.00 20 1018.1
20260509232339 21 130 4.8 8.0 0.00 0.00 0.00 20 1018.2
20260509231834 21 255 1.6 4.8 0.00 0.00 0.00 21 1018.2
20260509231332 21 45 6.4 8.0 0.00 0.00 0.00 20 1018.3
20260509230829 22 146 3.2 3.2 0.00 0.00 0.00 20 1018.2
20260509230326 21 159 3.2 3.2 0.00 0.00 0.00 20 1017.8
20260509225821 21 121 3.2 3.2 0.00 0.00 0.00 20 1018.1
20260509225318 20 136 1.6 3.2 0.00 0.00 0.00 20 1017.8
20260509224814 20 144 1.6 1.6 0.00 0.00 0.00 21 1018.3
20260509224311 21 147 0.0 0.0 0.00 0.00 0.00 21 1018.3
20260509223807 21 149 0.0 1.6 0.00 0.00 0.00 21 1018.1
20260509223304 21 151 1.6 1.6 0.00 0.00 0.00 21 1018.2
20260509222801 21 132 0.0 1.6 0.00 0.00 0.00 21 1018.2
20260509222256 22 101 4.8 8.0 0.00 0.00 0.00 20 1018.3
20260509221753 23 347 8.0 9.7 0.00 0.00 0.00 19 1018.2
20260509221249 22 158 0.0 1.6 0.00 0.00 0.00 19 1018.3
20260509220745 22 133 3.2 3.2 0.00 0.00 0.00 20 1018.4
20260509220242 22 89 4.8 8.0 0.00 0.00 0.00 21 1018.4
20260509215737 21 148 4.8 9.7 0.00 0.00 0.00 21 1018.7
20260509215234 20 128 1.6 1.6 0.00 0.00 0.00 21 1018.9
20260509214731 20 309 4.8 8.0 0.00 0.00 0.00 22 1019.2